Theta_e
334 335 333 333 332 333 333 333 332 332 332 330 329 330 330 333 334 334 334 334 334 333 333 334 334 335 335 336 336 331 332 337 337 338 337 337 335 336 335 334 335 334
325 329 334 333 332 333 333 334 333 331 331 331 332 331 333 334 334 334 334 333 332 331 331 333 333 333 333 332 334 332 331 335 334 334 337 337 336 337 337 336 337 337
325 327 333 333 332 334 334 334 334 332 331 331 333 333 332 334 334 334 334 333 331 329 330 331 333 332 331 331 332 330 330 331 330 332 331 331 334 335 336 336 336 337
329 330 334 335 334 334 334 334 332 332 332 332 332 331 332 334 334 333 333 332 330 329 329 330 331 330 329 329 331 329 329 328 328 330 329 330 331 332 334 336 336 335
331 333 335 336 334 334 334 332 332 332 332 331 333 332 330 332 333 332 332 331 330 328 327 327 329 331 330 329 329 328 327 325 328 328 327 328 330 332 333 334 335 335
332 333 335 335 334 333 332 331 331 331 332 333 332 331 331 331 330 330 330 330 328 327 326 325 327 329 328 328 328 326 325 324 325 325 323 324 326 329 329 334 334 333
330 332 334 333 333 333 332 332 331 332 332 333 331 331 331 330 330 330 329 329 327 326 325 324 326 328 328 327 326 325 324 324 324 323 322 322 324 327 328 330 328 328
333 335 335 333 334 332 331 331 331 331 333 332 331 331 330 329 329 329 329 328 327 324 323 322 324 327 326 326 324 324 324 323 323 322 322 322 323 324 326 328 328 325
334 335 334 335 334 332 331 330 331 331 332 330 329 328 329 329 328 328 327 327 325 324 321 321 323 325 327 325 324 322 321 323 323 321 322 323 322 322 323 325 326 327
334 334 334 334 333 331 330 330 330 330 330 330 327 326 327 328 327 326 326 326 324 322 321 320 321 325 325 324 322 322 321 320 320 321 322 322 322 321 321 323 324 325
334 333 333 333 332 331 330 330 330 330 330 329 328 326 326 326 325 325 325 324 324 321 320 320 320 321 323 324 324 324 322 321 320 321 322 322 323 323 324 323 323 323
328 330 334 333 332 331 331 330 330 330 330 329 327 325 325 324 324 324 323 322 321 321 320 320 320 321 321 322 322 324 323 323 323 322 321 321 321 321 322 323 323 322
324 325 330 332 332 331 331 330 329 330 329 328 328 326 324 324 323 323 323 321 321 321 320 320 321 321 321 322 322 322 322 322 323 323 322 323 322 321 322 322 322 322
325 327 327 330 332 331 330 329 329 329 329 329 327 325 323 322 321 322 323 323 323 321 321 321 322 322 322 322 322 322 323 323 323 323 322 323 323 322 323 323 323 322
326 327 325 325 327 329 328 328 328 328 328 327 327 326 325 322 322 322 321 322 322 324 322 322 322 322 323 323 323 321 323 323 323 321 322 321 321 322 322 323 323 325
325 325 324 324 325 326 326 326 326 327 326 325 324 324 324 324 324 323 320 321 321 322 323 324 325 328 310 302 306 322 323 321 323 323 322 322 321 321 322 322 323 324
324 324 323 323 322 322 323 323 324 326 326 326 324 324 324 323 324 323 323 321 320 321 322 326 321 309 293 294 298 301 323 325 323 322 322 322 322 322 322 323 323 323
323 322 321 321 322 320 318 319 320 322 324 325 324 324 324 325 324 323 323 322 322 323 325 319 310 297 292 293 293 295 301 326 326 324 324 323 323 323 323 324 323 324
321 321 322 322 321 321 321 321 321 320 322 323 322 322 323 322 321 321 321 323 322 317 314 311 307 294 293 293 293 293 293 305 324 325 324 324 323 324 323 323 324 327
318 318 316 317 317 317 318 319 319 315 316 318 319 319 319 317 316 317 319 321 318 312 308 306 303 295 292 292 293 292 292 297 325 326 326 325 325 325 326 326 327 327
312 312 312 312 312 312 313 314 314 313 313 313 313 313 313 313 314 314 316 318 315 310 308 304 300 292 292 292 292 293 292 296 329 329 327 327 327 328 328 328 328 328
310 311 310 309 309 309 309 310 310 310 309 309 310 310 311 311 310 311 312 315 314 312 308 305 301 291 291 292 292 293 292 322 329 328 328 328 328 329 328 328 329 329
306 307 307 307 307 306 305 306 308 310 310 310 309 308 308 308 309 309 309 309 310 311 309 306 303 294 291 291 292 291 304 325 325 326 326 327 328 329 329 329 329 329
301 301 302 304 305 304 304 305 306 307 308 311 309 309 308 308 308 307 307 307 308 309 309 305 302 295 291 291 291 290 298 319 319 322 323 324 326 327 326 326 325 318
301 301 299 299 300 303 304 303 304 305 306 307 308 308 306 306 306 305 305 306 306 306 305 307 305 299 291 291 291 291 300 317 315 316 317 319 318 319 322 323 325 318
303 302 301 300 300 301 302 302 303 303 303 304 304 303 303 304 304 303 303 304 305 305 304 306 306 302 295 291 291 292 291 308 313 313 312 313 315 315 315 318 319 321
Wind_Speed
6 5 7 7 7 8 8 8 7 8 7 6 7 7 7 7 7 7 6 6 5 5 5 4 4 4 3 3 2 3 4 5 4 4 5 4 4 5 5 5 4 4
2 9 6 7 6 7 8 8 8 8 7 7 7 7 7 7 7 7 7 6 6 6 5 5 5 5 4 4 4 4 4 4 5 4 5 5 4 5 4 5 6 4
8 7 9 9 7 8 9 8 8 7 8 7 7 6 6 6 6 7 7 6 6 6 5 5 5 4 4 4 4 5 5 6 6 5 5 5 4 4 4 5 5 6
8 10 9 9 8 9 8 8 8 7 7 7 7 7 6 5 6 7 7 6 6 6 6 6 5 5 5 5 4 5 6 5 5 5 4 4 4 4 4 4 5 5
10 9 8 7 8 9 8 8 9 8 8 8 7 7 7 7 7 7 7 6 6 6 6 6 6 5 5 5 5 6 6 6 5 4 5 5 4 4 4 4 5 5
9 8 7 8 8 8 9 9 9 9 8 8 8 7 8 8 8 8 7 7 6 6 6 6 6 6 6 6 6 6 6 6 5 5 6 5 5 5 5 5 6 6
10 9 9 9 9 10 10 9 8 9 8 7 8 7 8 8 8 8 8 7 7 6 6 6 7 7 6 6 6 6 5 6 5 6 6 5 5 5 5 6 6 7
11 10 10 9 10 10 10 9 9 8 8 8 8 8 8 8 8 7 7 7 7 6 6 6 7 8 7 7 7 7 6 4 4 5 6 6 5 6 6 5 6 8
11 10 10 10 10 9 10 9 9 8 8 8 8 8 8 7 7 7 7 8 7 6 6 6 7 8 6 7 7 7 6 5 3 4 5 6 6 6 8 7 7 7
10 10 10 10 10 9 10 10 9 8 7 8 8 8 8 7 7 7 8 8 7 7 6 6 7 7 7 7 7 6 6 6 5 5 5 6 6 7 7 6 7 7
7 8 10 10 10 9 10 10 9 8 7 8 8 8 7 7 6 7 7 8 7 7 7 7 7 8 7 7 6 5 5 6 6 6 6 5 5 5 5 6 6 6
8 1 6 9 9 10 10 10 9 9 8 7 8 8 7 7 7 6 7 7 7 7 7 7 7 7 7 7 7 6 6 5 5 6 6 6 5 5 5 4 5 6
10 7 5 7 8 9 9 10 9 9 9 8 7 8 8 7 7 7 6 7 6 6 5 6 7 7 6 6 7 7 6 6 6 6 5 5 5 5 4 4 4 4
6 5 5 3 6 8 9 9 9 8 7 6 6 7 7 7 7 7 6 5 6 5 5 5 6 6 6 6 6 7 6 5 5 5 6 5 5 4 4 3 3 3
10 8 6 5 2 7 8 8 8 7 7 7 6 5 3 5 6 6 6 6 6 5 6 5 5 6 5 3 6 7 5 5 4 5 4 5 4 4 3 3 3 3
10 9 8 7 6 7 7 8 8 8 8 7 7 6 4 3 3 3 5 6 6 6 6 5 3 5 10 10 9 1 5 4 4 3 4 4 4 4 4 3 3 3
12 12 12 11 10 8 8 9 9 7 7 8 7 6 5 4 3 3 2 2 4 5 6 5 8 7 14 13 11 9 5 2 3 4 3 3 4 4 4 4 4 4
11 10 9 8 9 9 8 7 7 7 7 7 6 6 5 5 5 5 4 4 3 5 8 8 7 11 12 12 11 11 8 4 2 3 3 4 4 5 4 4 4 4
11 12 10 8 7 6 6 6 7 7 5 5 5 4 5 6 6 6 5 3 6 9 9 8 7 12 11 10 10 9 9 8 4 3 4 5 5 5 5 4 5 5
9 9 10 8 7 7 7 6 7 7 5 5 5 4 5 7 7 8 5 7 8 9 8 7 8 11 10 9 8 7 6 6 5 4 5 5 5 5 4 5 5 5
10 10 10 9 8 8 8 8 7 7 6 5 5 6 5 5 6 6 6 7 8 9 9 8 8 11 9 8 8 6 6 7 2 2 4 4 5 4 4 5 4 5
10 11 10 9 9 9 9 8 8 7 7 6 6 6 5 6 7 6 6 8 9 10 10 9 7 9 9 9 9 7 7 4 0 2 2 2 2 3 3 3 4 4
10 10 10 10 10 10 9 8 7 7 7 7 8 8 7 6 6 6 6 8 9 9 9 7 7 8 9 10 11 11 7 1 1 2 2 2 3 2 3 3 3 3
10 10 10 9 9 9 9 8 8 7 7 5 7 7 7 6 6 6 7 8 8 7 6 7 6 7 10 11 12 12 10 3 2 2 2 2 2 1 3 4 2 6
10 10 9 9 9 9 8 8 7 6 5 5 6 6 6 5 5 5 6 6 7 6 6 5 6 7 11 11 13 13 9 3 3 2 2 2 2 2 2 4 2 6
9 10 9 8 8 8 8 7 6 5 5 5 5 5 5 5 5 6 6 5 5 5 5 6 5 5 8 10 12 13 13 7 5 4 4 4 4 4 5 4 4 2
Wind_Direction
321 209 173 174 171 160 168 169 167 160 169 161 163 163 168 159 165 165 150 149 135 125 121 122 134 136 136 138 140 137 128 121 133 144 149 172 159 167 177 188 188 199
110 287 203 189 171 164 172 169 163 162 161 164 160 159 156 155 167 166 157 145 140 124 124 129 133 134 142 137 129 130 128 125 127 135 148 162 148 162 170 170 181 183
148 233 221 190 174 171 168 166 160 161 159 163 151 154 147 155 163 164 158 155 136 124 125 131 129 131 129 126 139 135 128 127 124 130 132 138 147 148 151 173 171 179
166 205 205 181 176 170 169 167 162 162 160 159 159 150 152 154 161 159 158 152 137 133 132 136 139 139 132 126 138 126 127 128 122 135 141 140 145 140 147 162 155 171
174 196 190 178 173 167 171 173 168 165 164 164 157 154 154 157 160 161 161 157 147 141 141 141 143 134 136 135 131 123 126 119 124 128 116 119 122 125 135 146 150 148
173 183 180 174 164 165 174 178 173 168 165 166 165 163 160 162 165 162 166 163 158 149 146 146 145 145 140 129 132 127 132 123 116 126 119 112 115 129 130 129 139 140
171 177 175 176 168 171 178 179 174 171 167 165 163 168 163 169 166 166 168 169 162 161 150 147 146 143 138 138 134 133 125 123 134 129 122 106 103 114 122 117 118 121
171 171 167 173 169 173 180 173 173 171 160 161 168 161 170 170 167 166 168 171 167 159 150 145 150 141 144 144 138 132 127 133 133 132 116 109 110 107 120 116 124 121
169 168 168 167 166 174 177 171 168 164 161 163 162 160 167 169 162 168 172 169 164 161 151 146 147 143 143 144 139 145 141 130 132 130 135 134 130 127 128 131 130 126
167 163 161 162 168 176 173 166 164 163 163 163 156 162 163 161 160 172 170 168 163 164 155 151 144 147 150 149 148 140 141 139 139 139 147 147 140 139 129 132 135 139
149 158 159 166 168 171 167 163 160 163 164 160 154 159 154 155 159 167 172 167 166 170 164 158 152 153 153 146 136 145 136 137 141 134 139 134 122 110 125 131 136 137
68 11 170 164 164 165 161 162 160 163 160 159 157 151 153 157 160 167 176 166 172 172 168 165 156 152 155 155 149 150 148 141 137 143 143 139 140 147 136 130 136 138
153 158 203 164 163 158 155 161 161 158 162 155 153 148 154 160 163 168 176 173 166 164 165 165 155 155 148 149 152 157 154 149 147 146 144 140 148 138 135 139 152 146
128 129 144 140 149 148 150 154 149 150 142 136 140 144 154 161 163 167 165 176 151 165 155 151 153 153 149 154 159 152 153 156 154 156 150 144 142 136 128 134 130 139
134 133 116 97 114 133 137 138 137 129 128 120 121 125 145 152 161 162 170 166 155 152 149 153 158 158 143 155 156 154 155 161 164 162 159 151 154 148 146 159 160 137
144 138 123 125 123 117 111 111 110 109 109 111 114 123 130 125 130 150 163 161 157 151 138 151 128 59 4 10 13 11 171 161 154 162 180 170 179 163 164 184 190 177
133 128 127 123 110 100 92 97 97 91 96 95 92 90 85 85 90 94 56 122 148 146 149 98 49 16 354 354 348 360 341 179 182 182 186 197 196 198 192 187 198 199
124 113 103 105 110 109 106 97 83 67 65 67 74 73 72 80 78 62 36 19 42 83 72 61 58 15 7 8 3 346 331 314 233 212 204 212 211 214 206 200 199 201
119 115 101 98 95 95 78 66 83 93 85 81 71 70 78 77 77 75 60 48 71 70 65 55 53 15 8 15 13 7 348 316 257 242 236 221 227 228 233 222 213 210
96 98 99 101 94 84 87 92 82 72 71 78 94 89 87 92 87 84 67 81 86 86 77 62 46 10 7 13 14 359 355 317 263 255 249 253 248 243 239 236 231 238
77 83 88 91 86 82 86 92 95 100 91 78 78 77 70 74 73 73 82 98 98 91 80 65 41 5 8 12 13 351 338 284 252 250 244 237 242 247 251 252 243 240
77 84 80 76 81 86 88 88 88 86 87 83 82 75 74 81 77 76 83 85 78 76 77 66 48 15 7 16 9 360 309 264 200 254 249 262 244 240 243 237 241 243
52 69 82 87 85 83 80 79 82 88 90 92 90 85 77 75 87 83 78 79 84 91 92 85 62 22 16 19 16 356 320 9 305 259 252 258 265 271 258 257 256 283
43 45 53 59 76 84 84 82 81 77 69 60 85 89 85 73 74 77 70 66 69 72 78 91 74 40 23 29 22 9 336 2 351 337 310 306 298 303 295 282 308 90
58 54 53 51 55 62 67 68 65 68 74 78 85 86 73 62 59 68 72 74 72 70 50 72 83 58 34 28 26 20 358 350 10 354 325 11 333 304 305 308 274 151
66 67 64 63 63 62 61 63 64 67 70 79 78 84 92 97 90 71 71 74 83 85 67 50 52 60 46 36 31 25 10 355 20 16 9 350 345 330 330 286 266 194